Dewpoint
63 62 61 61 60 59 58 57 55 52 52 54 55 58 61 61 60 59 60 54 51 50 51 53 55 56 56 56 56 56 56 56 56 56 56 57 57 58
63 62 61 61 60 60 59 59 57 54 52 55 56 57 59 59 58 59 58 53 50 49 49 51 52 54 54 54 54 54 55 55 56 55 56 56 57 58
62 62 61 60 59 59 58 57 59 58 55 54 56 56 56 57 57 58 58 58 54 48 48 49 50 50 51 51 51 52 53 53 54 54 55 56 57 58
61 61 60 59 58 57 58 57 58 59 56 53 54 55 55 57 57 58 58 59 58 49 48 48 49 49 49 49 49 49 50 50 51 52 53 54 56 57
61 61 60 59 57 58 59 59 59 59 58 55 54 54 54 57 56 57 56 53 53 49 47 46 47 48 48 48 48 48 48 48 48 48 49 50 51 53
60 61 61 60 57 58 59 59 58 58 57 57 55 55 56 56 57 53 49 47 46 45 45 46 47 47 47 47 47 47 47 47 48 47 47 46 47 49
51 47 46 47 50 53 55 52 54 53 54 54 54 54 54 54 54 52 52 42 40 42 40 39 43 44 45 45 47 46 46 46 46 46 46 44 44 45
42 39 39 39 39 38 38 36 40 48 49 50 52 52 52 52 53 49 42 40 41 40 36 34 37 36 38 41 43 43 43 43 43 43 44 43 41 41
42 43 39 38 35 34 34 33 33 33 33 39 42 35 37 35 36 46 44 42 39 35 35 32 33 32 35 38 40 40 40 40 40 39 39 38 37 36
34 36 38 36 36 34 32 30 29 30 30 30 30 29 31 32 35 40 41 33 34 33 35 31 32 30 32 34 37 37 37 36 36 36 35 34 34 34
31 32 33 31 34 33 30 27 27 27 30 30 30 29 29 31 33 38 35 36 32 32 33 31 30 28 30 31 33 35 35 34 34 33 33 33 32 31
29 30 32 31 31 31 28 27 24 24 25 25 26 26 26 27 29 29 33 35 31 31 32 29 28 28 25 28 31 31 32 32 32 32 32 32 31 28
28 29 31 31 31 30 29 27 25 26 26 25 25 25 25 25 26 27 30 32 31 27 31 31 29 27 26 24 27 29 30 30 29 29 30 30 31 30
27 29 30 32 32 31 30 30 29 27 27 26 25 25 24 25 26 27 28 29 31 30 31 32 28 26 24 24 22 26 26 27 27 25 26 27 28 26
28 29 29 28 28 28 30 30 29 28 27 25 25 25 26 27 28 27 27 28 27 26 29 31 28 28 27 24 22 24 24 26 27 25 26 26 25 26
25 25 25 26 25 25 25 26 27 27 27 26 25 26 27 27 25 26 24 25 24 23 26 27 29 29 26 26 25 24 26 24 26 26 26 26 27 27
22 21 21 21 20 21 21 22 24 25 24 25 25 25 25 25 24 24 23 22 20 21 22 24 26 25 26 27 24 24 24 23 25 24 23 22 24 25
18 17 17 17 17 18 19 19 20 21 22 23 22 22 22 23 23 23 23 21 20 21 21 23 24 24 24 23 26 23 23 23 24 24 23 21 22 25
16 16 16 17 17 16 15 15 16 19 20 20 20 20 21 21 21 20 20 19 21 21 22 23 23 22 19 15 19 24 22 22 22 20 16 18 19 21
16 15 15 16 16 15 17 16 16 16 17 18 18 18 19 18 17 16 16 16 15 11 9 9 11 16 18 15 15 13 17 18 18 18 16 15 19 16
15 16 16 15 15 16 13 14 12 13 14 13 14 15 15 16 15 15 15 13 15 10 7 4 6 11 17 17 9 12 14 11 12 13 13 12 12 15
12 13 13 12 12 13 14 9 10 9 11 11 9 9 10 13 11 11 11 11 12 11 6 9 8 10 13 17 12 8 13 14 13 9 9 11 11 6
2 9 11 9 9 8 10 11 7 6 6 6 7 8 6 7 10 10 9 9 10 9 12 10 8 8 8 6 12 12 10 9 13 15 15 14 12 12
Lifted_Index
-5 -4 -4 -4 -4 -3 -3 -2 -1 -1 -1 -2 -2 -2 -2 -2 -1 -1 -1 -0 0 1 1 1 1 1 2 3 4 5 5 5 5 5 6 5 5 4
-5 -4 -4 -4 -3 -3 -2 -2 -2 -1 -1 -2 -2 -2 -2 -1 -1 -1 -1 0 0 1 1 1 1 1 2 3 4 5 5 6 6 6 6 6 5 5
-4 -4 -4 -4 -3 -3 -2 -2 -1 -1 -1 -1 -1 -1 -1 -1 -1 -0 0 1 1 1 1 1 1 1 1 2 4 5 5 6 6 6 7 7 6 6
-4 -4 -4 -4 -3 -3 -2 -1 -1 -1 -1 -1 -1 -1 -1 -1 -1 -0 0 1 1 2 2 1 1 1 1 2 3 4 5 5 6 6 6 6 6 6
-4 -4 -4 -4 -3 -2 -1 -1 -1 -1 -1 -1 -1 -1 -1 -1 -1 -1 -0 0 1 2 2 2 2 1 2 2 3 4 4 5 5 6 6 6 6 6
-4 -4 -4 -3 -3 -2 -1 -1 -2 -1 -1 -1 -1 -1 -1 -1 -0 -0 0 0 1 1 2 2 2 2 2 3 4 4 4 4 5 5 5 5 5 5
-4 -4 -4 -3 -3 -2 -2 -2 -2 -1 -1 -1 -1 -1 -1 -0 0 1 1 1 1 1 2 2 3 2 2 3 4 4 4 4 4 4 5 5 5 5
-3 -3 -4 -3 -3 -2 -2 -2 -1 -1 -0 -0 -1 -1 -0 1 1 1 1 1 1 2 2 3 3 2 3 3 4 5 4 4 4 5 5 5 5 5
-3 -3 -3 -3 -2 -2 -2 -1 -1 -0 0 1 0 0 1 1 2 2 2 2 2 2 3 3 3 3 3 4 4 4 5 5 5 5 5 5 6 6
-2 -1 -1 -1 -1 -1 -0 -0 0 1 2 2 2 2 2 2 2 2 2 2 2 3 3 3 3 4 5 6 6 6 6 6 6 6 6 6 6 6
3 4 4 3 3 3 2 1 1 2 3 3 4 4 4 4 3 3 3 3 3 3 4 4 4 5 6 9 10 10 10 9 9 8 8 8 9 9
7 9 10 9 9 8 6 5 4 4 4 5 6 6 6 5 4 4 4 3 3 3 4 5 5 5 7 10 13 15 15 14 13 12 12 12 12 13
10 12 13 13 13 12 11 9 8 8 7 7 7 6 6 6 6 6 6 5 4 5 6 6 6 6 7 9 13 16 18 17 16 15 15 16 16 16
13 13 14 15 14 14 14 13 13 12 11 10 8 8 8 8 8 8 8 8 8 8 9 9 8 8 7 8 10 14 17 18 18 18 18 18 18 18
16 16 16 16 16 15 15 15 15 14 13 12 11 11 11 12 12 11 11 11 11 11 12 13 12 11 10 10 10 13 15 18 19 19 19 19 19 20
18 18 17 17 17 16 16 16 15 15 14 13 13 14 14 14 14 14 13 12 11 12 14 15 15 15 14 13 13 14 15 17 19 20 20 20 21 22
20 19 19 19 18 18 17 17 17 17 16 16 16 16 15 15 14 15 15 13 12 12 14 16 17 17 17 16 16 16 17 18 19 20 20 20 21 23
19 19 19 19 19 19 19 19 20 20 20 19 19 18 17 16 16 17 16 15 14 14 15 16 18 17 17 17 18 19 19 19 20 21 20 20 20 22
19 18 18 19 19 19 20 20 21 21 22 21 21 20 20 19 19 19 18 17 17 17 17 17 18 17 15 16 18 20 20 20 20 21 21 21 22 23
19 19 19 20 20 20 21 21 21 21 22 21 21 21 21 21 21 20 20 20 19 19 19 19 19 19 17 17 19 21 22 22 22 22 23 23 24 25
21 21 21 22 22 22 22 22 22 22 22 22 22 22 22 21 21 21 21 21 21 20 20 21 21 22 21 20 20 21 23 24 24 24 24 24 24 24
23 23 23 24 24 24 24 24 23 23 23 23 23 23 22 22 22 22 21 21 21 21 21 22 23 23 23 22 21 21 22 24 25 25 25 24 23 22
25 25 25 25 25 25 25 25 24 24 24 24 24 24 23 23 22 22 22 22 21 21 21 22 23 23 23 22 21 21 22 23 24 24 24 25 24 24